QPF
0.01 0.03 0.07 0.14 0.16 0.11 0.10 0.11 0.08 0.07 0.08 0.07 0.07 0.07 0.08 0.10 0.07 0.06 0.08 0.08 0.07 0.07 0.09 0.11 0.10 0.09 0.11 0.14 0.13 0.12 0.11 0.10 0.10 0.10 0.09 0.10 0.08 0.08 0.07 0.07 0.09 0.08 0.08
0.01 0.04 0.11 0.20 0.24 0.17 0.13 0.10 0.08 0.07 0.08 0.08 0.10 0.08 0.07 0.09 0.09 0.09 0.10 0.09 0.08 0.08 0.09 0.10 0.09 0.10 0.13 0.15 0.18 0.16 0.14 0.12 0.11 0.11 0.11 0.10 0.08 0.07 0.07 0.08 0.10 0.09 0.09
0.02 0.07 0.13 0.21 0.31 0.26 0.19 0.16 0.13 0.11 0.09 0.08 0.09 0.11 0.12 0.14 0.13 0.11 0.11 0.09 0.09 0.10 0.10 0.09 0.10 0.10 0.12 0.16 0.17 0.18 0.17 0.15 0.13 0.13 0.14 0.11 0.08 0.08 0.08 0.09 0.11 0.11 0.12
0.05 0.13 0.16 0.22 0.33 0.30 0.23 0.20 0.18 0.15 0.11 0.09 0.10 0.19 0.18 0.15 0.13 0.10 0.09 0.08 0.10 0.12 0.11 0.09 0.11 0.12 0.13 0.18 0.19 0.22 0.22 0.24 0.17 0.17 0.13 0.09 0.07 0.09 0.10 0.10 0.10 0.12 0.13
0.07 0.12 0.17 0.23 0.26 0.25 0.21 0.18 0.16 0.13 0.10 0.10 0.11 0.13 0.13 0.14 0.16 0.15 0.15 0.14 0.16 0.13 0.11 0.12 0.13 0.14 0.13 0.18 0.24 0.29 0.30 0.37 0.24 0.18 0.11 0.09 0.09 0.11 0.10 0.11 0.10 0.12 0.13
0.05 0.10 0.19 0.22 0.21 0.20 0.21 0.20 0.19 0.16 0.13 0.12 0.12 0.12 0.12 0.14 0.21 0.24 0.23 0.23 0.15 0.12 0.11 0.11 0.11 0.14 0.13 0.15 0.23 0.31 0.37 0.47 0.34 0.22 0.13 0.12 0.12 0.12 0.12 0.11 0.11 0.12 0.14
0.03 0.06 0.12 0.17 0.18 0.17 0.20 0.24 0.25 0.21 0.17 0.15 0.15 0.10 0.08 0.09 0.16 0.22 0.24 0.21 0.14 0.10 0.09 0.10 0.11 0.14 0.14 0.17 0.23 0.29 0.36 0.42 0.37 0.35 0.33 0.23 0.17 0.15 0.14 0.13 0.14 0.14 0.14
0.03 0.06 0.09 0.10 0.12 0.13 0.18 0.22 0.20 0.19 0.16 0.14 0.14 0.09 0.07 0.08 0.11 0.13 0.14 0.16 0.12 0.09 0.09 0.10 0.13 0.18 0.22 0.26 0.31 0.29 0.31 0.27 0.28 0.27 0.32 0.30 0.23 0.18 0.15 0.16 0.17 0.16 0.14
0.05 0.06 0.08 0.09 0.10 0.12 0.14 0.18 0.16 0.17 0.15 0.12 0.18 0.12 0.09 0.10 0.11 0.12 0.11 0.10 0.08 0.08 0.08 0.09 0.13 0.16 0.25 0.38 0.35 0.26 0.25 0.20 0.22 0.25 0.21 0.20 0.19 0.19 0.21 0.19 0.20 0.17 0.13
0.07 0.08 0.07 0.09 0.09 0.11 0.13 0.18 0.17 0.15 0.16 0.15 0.24 0.17 0.11 0.11 0.12 0.11 0.09 0.07 0.07 0.10 0.10 0.11 0.14 0.16 0.20 0.27 0.30 0.21 0.20 0.20 0.20 0.17 0.14 0.13 0.15 0.18 0.28 0.31 0.28 0.22 0.16
0.06 0.10 0.10 0.08 0.06 0.08 0.13 0.18 0.16 0.16 0.18 0.20 0.26 0.17 0.13 0.11 0.09 0.08 0.06 0.06 0.07 0.10 0.12 0.13 0.15 0.14 0.18 0.28 0.23 0.16 0.18 0.20 0.17 0.12 0.18 0.16 0.14 0.14 0.23 0.39 0.37 0.28 0.22
0.04 0.06 0.06 0.04 0.05 0.07 0.11 0.16 0.16 0.14 0.14 0.23 0.23 0.16 0.12 0.10 0.08 0.06 0.06 0.07 0.08 0.09 0.13 0.14 0.11 0.09 0.11 0.14 0.14 0.14 0.14 0.12 0.11 0.10 0.15 0.10 0.08 0.10 0.14 0.27 0.41 0.32 0.20
0.03 0.04 0.04 0.03 0.02 0.03 0.07 0.14 0.20 0.21 0.22 0.22 0.15 0.12 0.08 0.07 0.07 0.07 0.09 0.09 0.08 0.09 0.20 0.15 0.10 0.07 0.08 0.08 0.08 0.09 0.08 0.07 0.06 0.07 0.09 0.04 0.03 0.05 0.08 0.14 0.28 0.31 0.22
0.02 0.02 0.04 0.05 0.04 0.04 0.05 0.07 0.12 0.15 0.13 0.11 0.08 0.07 0.06 0.05 0.06 0.07 0.10 0.08 0.06 0.09 0.15 0.12 0.11 0.09 0.08 0.08 0.06 0.05 0.05 0.04 0.05 0.05 0.05 0.03 0.02 0.04 0.07 0.10 0.15 0.17 0.20
0.01 0.02 0.03 0.04 0.04 0.03 0.02 0.02 0.04 0.05 0.06 0.06 0.06 0.05 0.05 0.06 0.07 0.08 0.10 0.09 0.07 0.06 0.07 0.07 0.07 0.08 0.06 0.05 0.05 0.05 0.04 0.05 0.05 0.05 0.04 0.04 0.03 0.04 0.06 0.08 0.09 0.12 0.15
0.01 0.01 0.01 0.01 0.01 0.01 0.01 0.01 0.02 0.02 0.03 0.03 0.05 0.05 0.04 0.06 0.07 0.08 0.09 0.06 0.05 0.05 0.05 0.06 0.06 0.07 0.07 0.06 0.05 0.05 0.06 0.05 0.03 0.04 0.05 0.05 0.03 0.04 0.06 0.06 0.07 0.09 0.11
0.03 0.06 0.04 0.02 0.01 0.01 0.02 0.02 0.02 0.04 0.05 0.06 0.08 0.09 0.10 0.08 0.09 0.08 0.05 0.04 0.04 0.05 0.06 0.07 0.07 0.07 0.06 0.06 0.05 0.05 0.05 0.05 0.04 0.04 0.04 0.05 0.05 0.05 0.05 0.05 0.05 0.07 0.08
0.03 0.11 0.17 0.06 0.01 0.02 0.03 0.03 0.02 0.04 0.07 0.08 0.11 0.12 0.10 0.06 0.05 0.05 0.04 0.04 0.03 0.04 0.05 0.07 0.09 0.07 0.06 0.05 0.04 0.03 0.03 0.04 0.03 0.05 0.04 0.04 0.05 0.04 0.04 0.03 0.04 0.04 0.06
0.01 0.06 0.22 0.12 0.03 0.03 0.03 0.03 0.02 0.03 0.04 0.03 0.04 0.05 0.04 0.03 0.02 0.03 0.04 0.05 0.04 0.04 0.05 0.04 0.05 0.05 0.05 0.04 0.03 0.03 0.03 0.03 0.04 0.05 0.04 0.05 0.05 0.05 0.04 0.02 0.03 0.03 0.05
0.01 0.02 0.06 0.06 0.04 0.03 0.02 0.02 0.02 0.02 0.01 0.01 0.01 0.03 0.02 0.02 0.02 0.02 0.02 0.03 0.03 0.04 0.04 0.03 0.04 0.04 0.04 0.05 0.04 0.03 0.03 0.04 0.04 0.04 0.04 0.05 0.05 0.05 0.04 0.04 0.04 0.04 0.04
0.01 0.01 0.02 0.02 0.02 0.03 0.02 0.02 0.02 0.02 0.02 0.02 0.02 0.02 0.03 0.02 0.03 0.02 0.02 0.03 0.03 0.03 0.04 0.05 0.05 0.05 0.05 0.04 0.04 0.04 0.03 0.02 0.02 0.03 0.04 0.05 0.04 0.05 0.05 0.05 0.05 0.06 0.06
0.00 0.00 0.01 0.01 0.01 0.01 0.02 0.02 0.03 0.03 0.03 0.02 0.03 0.03 0.03 0.03 0.03 0.03 0.04 0.06 0.06 0.05 0.07 0.07 0.05 0.04 0.05 0.05 0.05 0.04 0.03 0.04 0.04 0.02 0.03 0.03 0.03 0.04 0.04 0.04 0.04 0.06 0.07
0.00 0.00 0.00 0.01 0.01 0.00 0.01 0.02 0.02 0.02 0.02 0.02 0.02 0.03 0.03 0.03 0.03 0.03 0.05 0.08 0.08 0.06 0.05 0.05 0.05 0.05 0.06 0.04 0.03 0.04 0.04 0.06 0.05 0.04 0.03 0.03 0.03 0.03 0.03 0.03 0.04 0.04 0.04
0.00 0.00 0.00 0.00 0.00 0.01 0.01 0.01 0.01 0.01 0.01 0.02 0.02 0.02 0.02 0.02 0.02 0.02 0.03 0.03 0.04 0.04 0.04 0.06 0.06 0.06 0.06 0.04 0.03 0.04 0.05 0.05 0.06 0.06 0.05 0.04 0.03 0.03 0.03 0.03 0.03 0.04 0.05
0.00 0.00 0.00 0.00 0.00 0.00 0.01 0.01 0.01 0.01 0.01 0.02 0.02 0.02 0.01 0.01 0.01 0.01 0.02 0.03 0.03 0.03 0.04 0.05 0.06 0.05 0.05 0.05 0.04 0.05 0.04 0.05 0.06 0.06 0.04 0.04 0.04 0.03 0.03 0.02 0.03 0.04 0.06
0.00 0.00 0.00 0.00 0.00 0.00 0.00 0.01 0.01 0.01 0.01 0.01 0.01 0.01 0.01 0.01 0.01 0.01 0.02 0.04 0.04 0.04 0.05 0.05 0.05 0.06 0.05 0.05 0.05 0.05 0.06 0.06 0.06 0.05 0.04 0.05 0.05 0.03 0.03 0.03 0.04 0.04 0.04
MSLP
1006.71 1006.29 1006.22 1006.44 1006.79 1007.13 1007.33 1007.32 1007.09 1006.69 1006.19 1005.67 1005.18 1004.75 1004.36 1003.98 1003.59 1003.17 1002.72 1002.20 1001.59 1000.81 999.74 998.28 996.34 993.93 991.16 988.27 985.60 983.53 982.37 982.35 983.52 985.77 988.76 992.10 995.38 998.28 1000.59 1002.28 1003.43 1004.25 1004.93
1006.79 1006.43 1006.40 1006.62 1006.95 1007.25 1007.40 1007.34 1007.08 1006.66 1006.16 1005.66 1005.19 1004.77 1004.37 1003.98 1003.55 1003.09 1002.58 1002.01 1001.35 1000.52 999.43 997.96 996.04 993.67 990.95 988.12 985.50 983.47 982.33 982.31 983.45 985.66 988.61 991.90 995.15 998.03 1000.35 1002.06 1003.26 1004.11 1004.84
1006.71 1006.43 1006.45 1006.70 1007.03 1007.32 1007.45 1007.38 1007.12 1006.72 1006.24 1005.76 1005.31 1004.90 1004.49 1004.06 1003.58 1003.04 1002.46 1001.83 1001.14 1000.32 999.29 997.94 996.20 994.05 991.59 989.01 986.63 984.77 983.73 983.72 984.78 986.82 989.55 992.60 995.61 998.28 1000.43 1002.04 1003.18 1004.02 1004.75
1006.48 1006.30 1006.39 1006.69 1007.05 1007.34 1007.49 1007.44 1007.20 1006.83 1006.40 1005.96 1005.54 1005.12 1004.69 1004.21 1003.66 1003.05 1002.39 1001.72 1001.02 1000.26 999.36 998.23 996.79 995.00 992.95 990.78 988.77 987.19 986.31 986.31 987.24 989.03 991.40 994.04 996.65 998.95 1000.81 1002.20 1003.20 1003.97 1004.68
1006.20 1006.12 1006.29 1006.63 1007.03 1007.35 1007.52 1007.49 1007.30 1006.98 1006.60 1006.20 1005.81 1005.40 1004.95 1004.43 1003.82 1003.14 1002.42 1001.71 1001.02 1000.34 999.61 998.75 997.67 996.33 994.76 993.10 991.53 990.29 989.61 989.63 990.41 991.88 993.82 995.98 998.08 999.93 1001.41 1002.52 1003.33 1003.99 1004.65
1005.99 1005.98 1006.21 1006.59 1007.01 1007.35 1007.53 1007.54 1007.38 1007.11 1006.78 1006.43 1006.07 1005.68 1005.23 1004.68 1004.03 1003.30 1002.55 1001.82 1001.16 1000.56 1000.00 999.40 998.68 997.78 996.71 995.55 994.43 993.55 993.08 993.14 993.77 994.92 996.42 998.07 999.67 1001.05 1002.14 1002.95 1003.56 1004.10 1004.69
1005.94 1005.97 1006.23 1006.62 1007.03 1007.36 1007.54 1007.56 1007.43 1007.19 1006.91 1006.60 1006.28 1005.92 1005.48 1004.94 1004.28 1003.54 1002.77 1002.04 1001.40 1000.88 1000.45 1000.06 999.63 999.11 998.47 997.75 997.05 996.50 996.23 996.34 996.85 997.73 998.84 1000.05 1001.18 1002.15 1002.89 1003.45 1003.88 1004.32 1004.83
1006.09 1006.14 1006.38 1006.73 1007.10 1007.39 1007.54 1007.55 1007.42 1007.21 1006.95 1006.69 1006.40 1006.08 1005.68 1005.17 1004.54 1003.83 1003.07 1002.35 1001.73 1001.25 1000.89 1000.63 1000.40 1000.13 999.81 999.44 999.07 998.79 998.70 998.86 999.30 999.98 1000.81 1001.67 1002.46 1003.12 1003.61 1003.98 1004.29 1004.64 1005.09
1006.45 1006.46 1006.65 1006.93 1007.22 1007.43 1007.54 1007.51 1007.37 1007.16 1006.92 1006.68 1006.44 1006.16 1005.81 1005.36 1004.79 1004.13 1003.42 1002.72 1002.11 1001.63 1001.29 1001.06 1000.91 1000.79 1000.65 1000.50 1000.36 1000.29 1000.35 1000.58 1000.98 1001.55 1002.20 1002.85 1003.43 1003.90 1004.24 1004.51 1004.75 1005.05 1005.45
1006.93 1006.89 1007.00 1007.18 1007.37 1007.50 1007.54 1007.47 1007.30 1007.09 1006.86 1006.64 1006.42 1006.19 1005.90 1005.52 1005.02 1004.43 1003.78 1003.12 1002.51 1002.01 1001.64 1001.39 1001.23 1001.14 1001.08 1001.04 1001.04 1001.10 1001.27 1001.57 1001.99 1002.51 1003.07 1003.63 1004.11 1004.49 1004.78 1005.01 1005.23 1005.50 1005.86
1007.45 1007.35 1007.37 1007.46 1007.55 1007.60 1007.58 1007.46 1007.28 1007.05 1006.82 1006.61 1006.41 1006.21 1005.97 1005.65 1005.24 1004.74 1004.15 1003.54 1002.94 1002.42 1001.99 1001.67 1001.46 1001.32 1001.26 1001.25 1001.32 1001.46 1001.71 1002.06 1002.51 1003.03 1003.58 1004.10 1004.56 1004.94 1005.23 1005.48 1005.70 1005.96 1006.28
1007.92 1007.77 1007.71 1007.72 1007.75 1007.74 1007.68 1007.54 1007.34 1007.11 1006.87 1006.65 1006.46 1006.27 1006.06 1005.80 1005.47 1005.04 1004.54 1003.98 1003.42 1002.88 1002.40 1002.01 1001.72 1001.52 1001.41 1001.39 1001.47 1001.65 1001.94 1002.33 1002.80 1003.34 1003.89 1004.41 1004.89 1005.28 1005.61 1005.87 1006.11 1006.36 1006.62
1008.27 1008.09 1007.99 1007.96 1007.95 1007.92 1007.85 1007.72 1007.53 1007.30 1007.06 1006.82 1006.61 1006.41 1006.22 1005.99 1005.72 1005.37 1004.95 1004.46 1003.94 1003.41 1002.92 1002.48 1002.12 1001.86 1001.70 1001.66 1001.73 1001.91 1002.21 1002.61 1003.08 1003.61 1004.15 1004.67 1005.14 1005.55 1005.90 1006.18 1006.43 1006.65 1006.86
1008.47 1008.30 1008.19 1008.16 1008.16 1008.15 1008.11 1008.01 1007.85 1007.63 1007.38 1007.12 1006.88 1006.66 1006.45 1006.24 1006.00 1005.72 1005.38 1004.97 1004.51 1004.02 1003.54 1003.09 1002.71 1002.41 1002.23 1002.16 1002.21 1002.38 1002.66 1003.03 1003.47 1003.95 1004.45 1004.93 1005.37 1005.77 1006.10 1006.38 1006.62 1006.80 1006.96
1008.55 1008.39 1008.32 1008.31 1008.36 1008.41 1008.42 1008.38 1008.26 1008.06 1007.80 1007.52 1007.24 1006.97 1006.74 1006.52 1006.31 1006.08 1005.81 1005.48 1005.10 1004.68 1004.24 1003.82 1003.45 1003.15 1002.96 1002.88 1002.91 1003.06 1003.30 1003.61 1003.97 1004.37 1004.78 1005.17 1005.55 1005.89 1006.20 1006.46 1006.66 1006.82 1006.92
1008.51 1008.40 1008.37 1008.42 1008.53 1008.65 1008.74 1008.76 1008.68 1008.51 1008.26 1007.95 1007.62 1007.32 1007.05 1006.82 1006.62 1006.43 1006.22 1005.97 1005.67 1005.32 1004.95 1004.58 1004.25 1003.98 1003.80 1003.72 1003.74 1003.84 1004.02 1004.24 1004.50 1004.78 1005.06 1005.35 1005.63 1005.90 1006.16 1006.39 1006.57 1006.70 1006.76
1008.41 1008.34 1008.36 1008.47 1008.64 1008.83 1008.99 1009.07 1009.04 1008.89 1008.63 1008.31 1007.96 1007.62 1007.32 1007.08 1006.90 1006.74 1006.58 1006.39 1006.16 1005.89 1005.59 1005.28 1004.99 1004.76 1004.60 1004.52 1004.51 1004.57 1004.67 1004.80 1004.94 1005.08 1005.23 1005.39 1005.57 1005.77 1005.98 1006.18 1006.36 1006.48 1006.53
1008.26 1008.22 1008.28 1008.44 1008.65 1008.89 1009.10 1009.22 1009.23 1009.10 1008.86 1008.53 1008.17 1007.82 1007.52 1007.28 1007.11 1006.98 1006.86 1006.73 1006.56 1006.34 1006.10 1005.83 1005.59 1005.38 1005.24 1005.15 1005.12 1005.13 1005.15 1005.17 1005.19 1005.20 1005.22 1005.27 1005.36 1005.49 1005.67 1005.87 1006.05 1006.19 1006.25
1008.06 1008.04 1008.12 1008.30 1008.54 1008.80 1009.03 1009.18 1009.21 1009.11 1008.89 1008.58 1008.23 1007.90 1007.61 1007.40 1007.25 1007.15 1007.07 1006.97 1006.84 1006.66 1006.45 1006.22 1006.00 1005.81 1005.66 1005.57 1005.51 1005.46 1005.41 1005.33 1005.24 1005.14 1005.05 1005.00 1005.02 1005.11 1005.27 1005.48 1005.68 1005.85 1005.94
1007.80 1007.79 1007.87 1008.04 1008.27 1008.53 1008.77 1008.92 1008.97 1008.89 1008.70 1008.44 1008.14 1007.85 1007.61 1007.44 1007.33 1007.26 1007.21 1007.14 1007.02 1006.86 1006.66 1006.45 1006.24 1006.05 1005.90 1005.79 1005.70 1005.60 1005.48 1005.32 1005.14 1004.95 1004.78 1004.66 1004.63 1004.70 1004.85 1005.06 1005.29 1005.49 1005.62
1007.48 1007.46 1007.53 1007.67 1007.88 1008.12 1008.33 1008.49 1008.55 1008.50 1008.36 1008.16 1007.92 1007.71 1007.53 1007.42 1007.36 1007.33 1007.30 1007.24 1007.14 1006.99 1006.79 1006.58 1006.37 1006.19 1006.03 1005.90 1005.78 1005.64 1005.47 1005.26 1005.01 1004.75 1004.52 1004.35 1004.28 1004.31 1004.45 1004.66 1004.90 1005.11 1005.26
1007.09 1007.06 1007.11 1007.23 1007.40 1007.60 1007.79 1007.94 1008.02 1008.01 1007.93 1007.80 1007.65 1007.52 1007.43 1007.38 1007.37 1007.37 1007.36 1007.31 1007.22 1007.07 1006.88 1006.68 1006.48 1006.30 1006.15 1006.01 1005.87 1005.71 1005.50 1005.25 1004.95 1004.65 1004.37 1004.16 1004.04 1004.04 1004.14 1004.32 1004.53 1004.72 1004.86
1006.67 1006.64 1006.67 1006.76 1006.90 1007.06 1007.23 1007.37 1007.46 1007.50 1007.49 1007.44 1007.38 1007.34 1007.32 1007.33 1007.36 1007.39 1007.39 1007.35 1007.26 1007.12 1006.95 1006.77 1006.59 1006.44 1006.30 1006.18 1006.04 1005.87 1005.65 1005.37 1005.05 1004.72 1004.40 1004.15 1003.98 1003.92 1003.95 1004.06 1004.20 1004.34 1004.43
1006.28 1006.25 1006.27 1006.33 1006.44 1006.58 1006.73 1006.87 1006.98 1007.06 1007.10 1007.13 1007.15 1007.18 1007.22 1007.28 1007.33 1007.37 1007.38 1007.34 1007.26 1007.14 1006.99 1006.84 1006.71 1006.59 1006.50 1006.40 1006.28 1006.12 1005.90 1005.62 1005.30 1004.94 1004.60 1004.31 1004.08 1003.94 1003.88 1003.88 1003.92 1003.95 1003.97
1005.99 1005.97 1005.99 1006.04 1006.12 1006.23 1006.36 1006.50 1006.62 1006.73 1006.83 1006.91 1006.98 1007.06 1007.14 1007.21 1007.27 1007.30 1007.30 1007.26 1007.18 1007.08 1006.97 1006.86 1006.78 1006.72 1006.66 1006.61 1006.52 1006.38 1006.18 1005.91 1005.59 1005.23 1004.88 1004.56 1004.28 1004.06 1003.90 1003.78 1003.68 1003.59 1003.50
1005.88 1005.88 1005.89 1005.92 1005.98 1006.07 1006.17 1006.29 1006.42 1006.55 1006.67 1006.78 1006.88 1006.97 1007.05 1007.11 1007.14 1007.15 1007.12 1007.06 1006.99 1006.91 1006.83 1006.77 1006.74 1006.72 1006.71 1006.69 1006.63 1006.52 1006.34 1006.09 1005.79 1005.46 1005.12 1004.79 1004.48 1004.20 1003.95 1003.72 1003.49 1003.27 1003.07
Thickness
5805 5804 5796 5794 5794 5794 5793 5793 5792 5792 5792 5791 5790 5789 5788 5787 5787 5786 5785 5785 5784 5783 5783 5782 5782 5781 5780 5780 5780 5780 5779 5778 5776 5774 5773 5771 5771 5770 5769 5768 5768 5769 5767
5806 5803 5796 5795 5795 5794 5794 5793 5792 5792 5791 5790 5789 5787 5787 5786 5785 5784 5784 5783 5782 5782 5781 5781 5780 5779 5779 5779 5779 5779 5778 5776 5774 5773 5771 5771 5770 5769 5768 5767 5767 5768 5765
5806 5803 5799 5796 5795 5795 5794 5793 5792 5791 5790 5789 5788 5787 5785 5785 5784 5783 5782 5782 5781 5780 5780 5779 5779 5778 5777 5777 5777 5777 5775 5774 5773 5772 5771 5772 5771 5768 5767 5766 5766 5765 5763
5806 5805 5800 5796 5795 5795 5794 5793 5791 5790 5789 5788 5787 5786 5784 5783 5782 5782 5781 5781 5780 5779 5779 5778 5778 5777 5776 5775 5774 5774 5773 5773 5772 5771 5772 5773 5772 5768 5766 5765 5764 5763 5761
5806 5804 5799 5795 5794 5793 5793 5792 5791 5789 5788 5787 5786 5785 5783 5782 5781 5780 5780 5779 5779 5779 5778 5777 5776 5775 5774 5774 5773 5772 5772 5772 5771 5770 5772 5772 5770 5767 5764 5763 5762 5761 5760
5805 5803 5798 5794 5793 5792 5792 5791 5789 5788 5787 5786 5784 5783 5782 5780 5780 5780 5779 5778 5778 5778 5778 5777 5776 5774 5773 5773 5772 5772 5771 5771 5771 5773 5772 5771 5769 5765 5763 5762 5761 5760 5759
5805 5803 5799 5793 5792 5791 5791 5790 5788 5787 5786 5784 5783 5782 5781 5780 5780 5780 5778 5777 5777 5777 5777 5776 5775 5774 5773 5772 5772 5771 5770 5771 5771 5772 5771 5769 5767 5764 5762 5761 5760 5759 5758
5805 5803 5800 5794 5791 5790 5789 5789 5788 5787 5786 5784 5783 5781 5780 5780 5780 5780 5778 5777 5776 5776 5776 5775 5774 5774 5773 5772 5771 5770 5769 5770 5771 5772 5770 5768 5765 5762 5761 5760 5759 5758 5757
5805 5803 5801 5798 5793 5790 5789 5787 5787 5786 5785 5783 5782 5781 5779 5779 5779 5779 5777 5776 5776 5776 5775 5775 5774 5773 5773 5772 5771 5770 5769 5769 5771 5771 5769 5768 5764 5761 5759 5758 5758 5757 5755
5803 5801 5800 5798 5795 5793 5791 5788 5787 5786 5784 5782 5781 5780 5779 5778 5778 5778 5777 5776 5776 5775 5774 5774 5773 5773 5772 5771 5769 5769 5768 5767 5769 5769 5768 5766 5762 5760 5758 5757 5756 5755 5754
5799 5799 5798 5797 5795 5794 5792 5790 5789 5786 5783 5782 5781 5779 5779 5780 5780 5779 5777 5775 5775 5774 5774 5773 5773 5772 5771 5771 5769 5768 5768 5769 5768 5768 5767 5764 5761 5759 5757 5756 5755 5753 5754
5796 5797 5797 5795 5794 5793 5792 5790 5790 5788 5785 5783 5781 5780 5780 5779 5779 5779 5776 5775 5774 5774 5773 5773 5772 5772 5772 5773 5771 5769 5770 5770 5769 5768 5765 5761 5760 5758 5757 5756 5754 5753 5755
5796 5796 5796 5793 5791 5792 5790 5789 5789 5787 5784 5783 5781 5780 5779 5779 5779 5779 5778 5777 5776 5775 5775 5774 5774 5775 5774 5773 5772 5772 5772 5772 5771 5768 5764 5760 5758 5757 5756 5755 5753 5752 5752
5796 5795 5795 5794 5791 5789 5789 5789 5787 5786 5784 5783 5781 5780 5779 5778 5778 5777 5776 5777 5777 5776 5774 5775 5774 5773 5772 5772 5772 5772 5771 5771 5771 5768 5763 5759 5757 5756 5755 5754 5753 5752 5750
5795 5795 5794 5792 5791 5789 5788 5787 5786 5785 5784 5783 5780 5779 5778 5778 5776 5776 5775 5774 5775 5775 5774 5773 5773 5772 5771 5770 5770 5770 5770 5770 5769 5768 5764 5758 5756 5755 5754 5753 5752 5751 5750
5797 5796 5795 5793 5791 5788 5787 5786 5786 5785 5783 5782 5780 5778 5777 5777 5776 5775 5775 5774 5774 5774 5773 5773 5772 5770 5770 5770 5768 5768 5768 5768 5767 5766 5764 5760 5756 5755 5753 5753 5752 5750 5749
5799 5797 5794 5793 5791 5788 5787 5786 5787 5786 5785 5782 5780 5778 5776 5777 5775 5775 5775 5774 5773 5772 5771 5771 5771 5771 5769 5769 5767 5767 5767 5766 5766 5764 5763 5762 5759 5755 5753 5752 5750 5749 5748
5800 5796 5794 5795 5791 5788 5786 5785 5786 5785 5783 5782 5780 5778 5776 5775 5775 5774 5774 5773 5772 5772 5771 5770 5769 5768 5767 5767 5766 5766 5766 5765 5765 5764 5763 5761 5760 5759 5755 5752 5750 5748 5748
5801 5797 5794 5793 5791 5789 5787 5786 5785 5783 5782 5781 5780 5778 5776 5775 5775 5775 5773 5771 5771 5771 5770 5769 5767 5766 5764 5764 5765 5764 5766 5765 5763 5764 5762 5761 5759 5757 5756 5752 5749 5748 5747
5802 5798 5795 5792 5790 5789 5789 5786 5785 5783 5783 5781 5779 5776 5775 5775 5774 5773 5773 5770 5770 5769 5767 5766 5764 5763 5763 5763 5765 5764 5764 5764 5763 5762 5761 5760 5758 5757 5756 5753 5751 5749 5746
5801 5797 5794 5791 5790 5789 5787 5786 5783 5782 5782 5780 5779 5776 5774 5773 5773 5772 5772 5770 5769 5768 5765 5764 5763 5762 5762 5763 5762 5760 5762 5763 5761 5759 5759 5758 5756 5755 5753 5752 5751 5749 5747
5800 5797 5794 5792 5791 5789 5787 5785 5784 5782 5781 5780 5778 5775 5773 5772 5771 5772 5769 5769 5768 5765 5763 5761 5760 5760 5761 5761 5758 5756 5753 5753 5755 5759 5756 5754 5754 5753 5752 5751 5748 5746 5745
5800 5798 5797 5793 5791 5789 5788 5787 5784 5781 5780 5779 5776 5774 5773 5771 5770 5769 5767 5767 5765 5764 5761 5759 5758 5756 5756 5758 5758 5754 5748 5745 5749 5753 5752 5751 5749 5749 5749 5748 5746 5744 5742
5802 5801 5797 5795 5792 5790 5788 5787 5783 5779 5777 5776 5775 5774 5772 5770 5769 5767 5766 5764 5762 5762 5759 5758 5757 5756 5753 5753 5754 5752 5751 5748 5743 5743 5747 5749 5747 5745 5745 5745 5744 5742 5739
5804 5802 5799 5795 5792 5790 5788 5786 5782 5780 5778 5778 5775 5772 5770 5769 5767 5765 5764 5762 5760 5759 5757 5755 5753 5753 5753 5751 5750 5749 5748 5746 5746 5741 5738 5740 5743 5744 5743 5742 5740 5739 5736
5805 5802 5799 5794 5790 5789 5787 5785 5781 5778 5776 5774 5771 5770 5769 5768 5766 5764 5762 5760 5758 5757 5754 5752 5751 5750 5748 5747 5747 5747 5745 5743 5741 5740 5737 5735 5736 5739 5739 5737 5736 5735 5733